Location: Pukehinau
(40.9167°S, 175.7333°E)
Time: 23:46:55
(UTC+00:00)

Daily predictions for brighter satellites

Satellite Brightness Start Highest point End
(mag) Time Altitude Azimuth Time Altitude Azimuth Time Altitude Azimuth
USA 59 Rocket 3.3 15:07:13 27° ESE 15:07:13 27° ESE 15:11:40 10° E
USA 215 3.7 16:20:37 10° ENE 16:26:36 55° SE 16:26:36 55° SE
USA 59 Rocket 1.5 16:53:49 53° SSW 16:56:21 87° SE 17:03:23 10° NE
Atlas Centaur 2 4.0 16:58:17 16° N 16:58:42 16° NNE 17:01:38 10° NE
Cosmos 2221 3.8 16:56:33 10° NNE 17:00:30 38° E 17:04:33 10° SSE
BREEZE-M DEB (TANK) 4.2 17:06:41 31° SSE 17:06:41 31° SSE 17:13:36 10° ESE
Cosmos 1331 Rocket 4.0 17:17:21 67° NNW 17:17:21 67° NNW 17:22:06 10° N
Meteor 2-21 4.3 17:14:14 10° NNW 17:20:22 70° W 17:26:39 10° S
SL-4 R/B 2.5 17:21:14 60° ESE 17:21:14 60° ESE 17:24:42 10° SE
Lacrosse 4 Rocket 2.8 17:25:35 28° N 17:25:35 28° N 17:27:38 10° NNE
Cosmos 1452 Rocket 3.9 17:28:37 47° NW 17:28:37 47° NW 17:32:50 10° N
Cosmos 2034 Rocket 4.3 17:22:17 10° S 17:28:32 66° E 17:34:39 10° NNE
Spot 4 Rocket 3.9 17:24:08 10° NNE 17:29:18 84° WNW 17:31:10 41° SSW
Cosmos 1513 Rocket 4.4 17:28:41 40° SSW 17:30:50 62° W 17:36:56 10° N
Cosmos 44 Rocket 3.6 17:31:57 42° SSW 17:33:35 69° ESE 17:38:39 10° NE
Cosmos 1302 Rocket 4.1 17:33:17 28° S 17:36:06 75° ESE 17:41:20 10° NNE
Meteor 1-26 Rocket 4.3 17:43:15 10° NNW 17:48:41 51° WSW 17:54:22 10° S
Meteor 2-21 Rocket 4.5 17:42:55 10° NNW 17:48:58 58° W 17:55:09 10° S
Meteor 1-31 Rocket 4.1 17:47:19 10° NE 17:50:53 39° ESE 17:54:29 10° S
ATLAS 5 CENTAUR R/B 4.3 17:54:11 10° NW 17:55:40 10° NNW 17:56:55 10° NNW
Cosmos 1656 3.8 17:53:04 16° SSW 17:57:37 77° ESE 18:03:07 10° NNE
COSMO-SKYMED 1 4.1 17:53:54 10° SSE 17:58:03 39° E 18:02:09 10° NNE
Cosmos 1726 2.3 17:56:30 22° S 17:58:19 56° E 18:01:25 10° NNE
Tiangong -2.3 17:58:55 76° WSW 17:59:06 84° S 18:02:19 10° E
SJ-7 4.4 17:55:45 10° N 17:59:46 59° W 18:01:29 32° SSW
CORIOLIS 4.1 17:55:09 10° N 18:00:31 71° WNW 18:06:00 10° SSW
Lacrosse 5 rocket 1.1 18:01:35 48° WNW 18:02:02 52° NW 18:05:35 10° NNE
Cosmos 1842 Rocket 3.7 17:57:43 10° N 18:02:10 78° E 18:06:44 10° S
YAOGAN 11 4.4 17:59:40 10° SSE 18:04:11 69° ENE 18:08:34 10° N
PSLV R/B 4.1 18:01:43 10° NNW 18:05:39 35° W 18:06:08 34° W
CZ-3 R/B 3.9 17:58:17 10° NW 18:06:27 21° N 18:10:43 10° NE
Cosmos 1464 Rocket 4.4 18:02:32 10° SSW 18:08:31 42° W 18:14:26 10° NNW
Cosmos 1269 Rocket 4.3 18:03:56 10° N 18:09:13 71° ENE 18:14:34 10° SSE
USA 215 3.7 18:03:50 10° NNE 18:10:03 45° NW 18:13:57 22° WSW
Cosmos 1536 3.7 18:07:32 10° S 18:11:20 48° E 18:15:05 10° NNE
Cosmos 1607 3.8 18:07:31 10° NW 18:13:33 64° SW 18:19:38 10° SSE
Okean 1 4.0 18:10:25 10° N 18:14:07 53° E 18:17:53 10° SSE
Tsikada Rocket 3.9 18:08:19 10° NNW 18:14:33 72° W 18:20:49 10° S
Cosmos 1743 3.2 18:14:48 33° WSW 18:15:23 35° W 18:18:44 10° NNW
Cosmos 614 Rocket 4.2 18:14:10 10° NW 18:19:00 45° WSW 18:23:57 10° S
Cosmos 1766 Rocket 4.1 18:21:00 16° SSW 18:24:05 37° W 18:28:08 10° NNW
NOSS 3-4 (C) 3.9 18:17:51 10° SSW 18:24:52 66° SE 18:30:55 10° NE
NOSS 3-4 (A) 3.9 18:17:59 10° SSW 18:24:59 67° SE 18:30:59 10° NE
Meteor 1-10 Rocket 4.3 18:20:02 10° N 18:25:59 86° W 18:32:03 10° S
Cosmos 1408 Rocket 3.9 18:22:14 10° S 18:26:40 67° E 18:31:03 10° NNE
ATLAS CENTAUR R/B 2.2 18:28:22 20° WNW 18:28:42 21° NW 18:31:02 10° N
Genesis I 3.5 18:30:46 10° NNW 18:34:19 63° ENE 18:37:52 10° SE
CZ-2C R/B 2.9 18:31:29 10° N 18:35:08 49° W 18:38:52 10° SSW
Cosmos 1340 Rocket 2.7 18:31:17 10° N 18:35:11 84° W 18:39:12 10° S
Cosmos 1634 Rocket 4.0 18:29:16 10° S 18:35:40 73° W 18:42:00 10° N
Cosmos 1697 Rocket 3.1 18:31:23 10° SSW 18:37:06 65° ESE 18:42:44 10° NE
Cosmos 2221 3.9 18:35:08 10° WNW 18:37:59 17° WSW 18:40:52 10° SSW
Helios 1B rocket 2.4 18:37:01 10° N 18:40:54 59° W 18:44:51 10° SSW
USA 32 4.0 18:36:25 10° N 18:41:39 71° W 18:46:58 10° S
SMAP 4.2 18:38:17 10° NNW 18:42:06 25° W 18:46:00 10° SW
Meteor 1-11 Rocket 3.7 18:37:28 10° S 18:43:08 83° W 18:48:40 10° N
USA 59 Rocket 2.7 18:40:24 13° WSW 18:44:57 20° W 18:49:49 10° NW
SKYMED 2 3.6 18:41:48 10° S 18:46:10 60° WSW 18:50:27 10° NNW
SAR-Lupe-2 3.6 18:42:39 10° NNE 18:46:15 83° ESE 18:49:55 10° SSW
Atlas Centaur 2 3.6 18:43:00 10° NW 18:46:30 20° N 18:49:35 10° NE
Cosmos 1992 Rocket 4.3 18:42:35 10° SSW 18:47:41 50° WNW 18:52:44 10° N
Helios 1A 4.1 18:45:11 10° SSE 18:49:12 48° E 18:53:10 10° N
Cosmos 1151 Rocket 3.8 18:45:10 10° N 18:49:25 59° E 18:53:48 10° SSE
Resurs 01 Rocket 4.4 18:48:41 10° E 18:50:36 13° ESE 18:52:31 10° SE
CZ-4B R/B 4.1 18:47:16 10° NNE 18:52:06 57° ESE 18:56:52 10° S
CZ-4 R/B 3.7 18:53:24 10° ENE 18:56:24 22° ESE 18:59:24 10° SSE
Cosmos 1980 Rocket 3.3 18:51:07 10° SSW 18:56:33 44° ESE 19:01:55 10° NE
SL-4 R/B 3.2 18:56:02 10° WSW 18:59:38 27° SSW 19:03:08 10° SE
Meteor 1-27 Rocket 3.8 18:54:27 10° NNW 19:00:16 70° W 19:06:03 10° S
Cosmos 1975 4.3 18:57:31 10° S 19:01:14 37° ESE 19:04:54 10° NNE
SL-08 R/B 3.9 18:57:32 10° SSE 19:02:21 67° ENE 19:07:11 10° N
CBERS 1 LM4 rocket 4.4 18:57:52 10° NNE 19:02:37 88° ESE 19:07:28 10° SSW
ADEOS 4.2 18:58:27 10° NNE 19:03:36 61° ESE 19:08:50 10° S
IGS 5A 3.9 19:00:52 10° N 19:04:47 42° W 19:08:45 10° SSW
Cosmos 1833 Rocket 3.1 19:01:50 10° NW 19:07:09 40° WSW 19:12:31 10° S
COSMOS 2406 4.3 19:05:58 10° N 19:11:27 51° ENE 19:16:59 10° SSE
Cosmos 1500 Rocket 3.8 19:07:28 10° SSW 19:11:50 51° W 19:16:05 10° NNW
Meteor 2-9 Rocket 4.4 19:11:50 10° SSW 19:17:09 52° W 19:22:32 10° N
